Fairbanks Ft. Wainwright, AK

3:34 PM AKDT on October 15, 2018 (GMT -0800)
Ladd Army Air Field

Weather History for PAFB - October, 2018

Change the Weather History Date:

Friday, October 12, 2018

  Actual Average Record
Temperature  
Mean Temperature 36 °F -  
Max Temperature 46 °F 31 °F 54 °F (2016)
Min Temperature 28 °F 18 °F 10 °F (2000)
Degree Days  
Heating Degree Days 29    
Moisture  
Dew Point 33 °F    
Average Humidity 87    
Maximum Humidity 100    
Minimum Humidity 62    
Precipitation  
Precipitation 0.00 in - - ()
Sea Level Pressure  
Sea Level Pressure 29.85 in    
Wind  
Wind Speed 3 mph (ENE)    
Max Wind Speed 9 mph    
Max Gust Speed -    
Visibility 9 miles    
Events      
Averages and records for this station are not official NWS values.
T = Trace of Precipitation, MM = Missing Value Source: NWS Daily Summary

Daily Weather History Graph

Daily Weather History Graph

Search for Another Location

Airport or City:

Astronomy

Oct. 12, 2018 Rise Set
Actual Time 8:34 AM AKDT 6:38 PM AKDT
Civil Twilight 7:44 AM AKDT 7:27 PM AKDT
Nautical Twilight 6:47 AM AKDT 8:23 PM AKDT
Astronomical Twilight 5:49 AM AKDT 9:22 PM AKDT
Moon 1:32 PM AKDT (10/12) 8:02 PM AKDT (10/12)
Length of Visible Light 11h 42m
Length of Day
10h 03m
Waxing Crescent, 15% of the Moon is Illuminated
Oct 12
Waxing Crescent
Oct 16
First Quarter
Oct 24
Full
Oct 31
Last Quarter
Nov 7
New

Hourly Weather History & Observations

Time (AKDT) Temp. Windchill Dew Point Humidity Pressure Visibility Wind Dir Wind Speed Gust Speed Precip Events Conditions
12:58 AM 32.5 °F - 32.2 °F 99% 29.85 in 4.0 mi Calm Calm - N/A   Clear
1:58 AM 32.9 °F 29.8 °F 32.5 °F 99% 29.86 in 6.0 mi ENE 3.5 mph - N/A   Clear
2:58 AM 32.5 °F 28.1 °F 32.4 °F 99% 29.86 in 10.0 mi ENE 4.6 mph - N/A   Clear
3:58 AM 32.0 °F - 32.0 °F 100% 29.87 in 10.0 mi Calm Calm - N/A   Clear
4:58 AM 30.7 °F - 30.4 °F 99% 29.86 in 10.0 mi Calm Calm - N/A   Clear
5:55 AM 28.4 °F - 28.2 °F 99% 29.89 in 10.0 mi Calm Calm - N/A   Clear
6:55 AM 28.4 °F 24.6 °F 28.2 °F 99% 29.86 in 10.0 mi East 3.5 mph - N/A   Clear
7:58 AM 28.9 °F - 28.6 °F 99% 29.86 in 10.0 mi Calm Calm - N/A   Clear
8:58 AM 28.0 °F - 27.9 °F 99% 29.86 in 8.0 mi Calm Calm - N/A   Clear
9:58 AM 30.9 °F 24.3 °F 30.7 °F 99% 29.86 in 9.0 mi ENE 6.9 mph - N/A   Scattered Clouds
10:58 AM 31.8 °F 24.6 °F 31.3 °F 98% 29.84 in 9.0 mi ENE 8.1 mph - N/A   Mostly Cloudy
11:58 AM 34.3 °F 27.0 °F 32.9 °F 94% 29.83 in 9.0 mi ENE 9.2 mph - N/A   Overcast
12:58 PM 36.1 °F 30.6 °F 34.7 °F 94% 29.83 in 10.0 mi ENE 6.9 mph - N/A   Mostly Cloudy
1:58 PM 39.6 °F 35.4 °F 35.8 °F 86% 29.84 in 10.0 mi ENE 5.8 mph - N/A   Mostly Cloudy
2:58 PM 44.2 °F 39.7 °F 37.6 °F 77% 29.85 in 10.0 mi ENE 8.1 mph - N/A   Clear
3:58 PM 44.2 °F 41.0 °F 36.1 °F 73% 29.84 in 10.0 mi ENE 5.8 mph - N/A   Mostly Cloudy
4:58 PM 43.3 °F 39.2 °F 35.4 °F 74% 29.83 in 10.0 mi ENE 6.9 mph - N/A   Mostly Cloudy
5:58 PM 43.7 °F 41.1 °F 34.5 °F 70% 29.83 in 9.0 mi ENE 4.6 mph - N/A   Overcast
6:58 PM 44.1 °F 40.8 °F 34.0 °F 68% 29.83 in 10.0 mi NE 5.8 mph - N/A   Overcast
7:58 PM 44.6 °F 41.4 °F 33.4 °F 65% 29.83 in 10.0 mi ENE 5.8 mph - N/A   Scattered Clouds
8:58 PM 44.8 °F 43.3 °F 32.4 °F 62% 29.82 in 10.0 mi NNE 3.5 mph - N/A   Overcast
9:58 PM 40.3 °F 37.1 °F 34.7 °F 80% 29.82 in 9.0 mi WNW 4.6 mph - N/A   Overcast
10:58 PM 40.5 °F - 34.7 °F 80% 29.83 in 10.0 mi Calm Calm - N/A   Overcast
11:58 PM 39.7 °F - 35.2 °F 84% 29.83 in 10.0 mi Calm Calm - N/A   Overcast